TimePST,TemperatureF,Dew PointF,Humidity,Sea Level PressureIn,VisibilityMPH,Wind Direction,Wind SpeedMPH,Gust SpeedMPH,PrecipitationIn,Events,Conditions,WindDirDegrees,DateUTC
12:15 AM,53.6,51.8,94,29.57,9.0,SSW,21.9,34.5,N/A,,Unknown,200,2012-12-01 08:15:00
12:55 AM,51.8,50.0,94,29.61,10.0,South,13.8,20.7,N/A,,Unknown,190,2012-12-01 08:55:00
1:15 AM,53.6,50.0,88,29.61,10.0,SSW,12.7,25.3,N/A,,Unknown,210,2012-12-01 09:15:00
1:35 AM,53.6,48.2,82,29.61,10.0,SSW,13.8,20.7,N/A,,Unknown,210,2012-12-01 09:35:00
2:15 AM,53.6,50.0,88,29.64,10.0,SSW,11.5,20.7,N/A,,Unknown,200,2012-12-01 10:15:00
2:35 AM,55.4,50.0,82,29.65,10.0,SSW,10.4,16.1,N/A,,Unknown,200,2012-12-01 10:35:00
2:55 AM,53.6,51.8,94,29.66,10.0,SSW,10.4,21.9,N/A,,Unknown,200,2012-12-01 10:55:00
3:15 AM,53.6,51.8,94,29.67,8.0,SSW,12.7,-,N/A,,Unknown,200,2012-12-01 11:15:00
3:35 AM,53.6,51.8,94,29.67,10.0,SSW,9.2,19.6,N/A,,Unknown,210,2012-12-01 11:35:00
3:55 AM,53.6,50.0,88,29.68,10.0,SSW,11.5,18.4,N/A,,Unknown,210,2012-12-01 11:55:00
4:15 AM,51.8,48.2,88,29.69,9.0,SSW,13.8,23.0,N/A,,Unknown,200,2012-12-01 12:15:00
4:35 AM,48.2,46.4,93,29.70,7.0,South,11.5,-,N/A,,Unknown,190,2012-12-01 12:35:00
4:55 AM,50.0,48.2,94,29.71,10.0,South,10.4,16.1,0.02,,Unknown,180,2012-12-01 12:55:00
5:15 AM,48.2,46.4,93,29.72,10.0,South,8.1,-,N/A,,Unknown,170,2012-12-01 13:15:00
5:35 AM,51.8,48.2,88,29.71,10.0,South,13.8,19.6,N/A,,Unknown,190,2012-12-01 13:35:00
5:55 AM,51.8,50.0,94,29.72,10.0,South,11.5,-,N/A,,Unknown,180,2012-12-01 13:55:00
6:15 AM,51.8,50.0,94,29.73,10.0,South,12.7,17.3,N/A,,Unknown,190,2012-12-01 14:15:00
6:35 AM,51.8,50.0,94,29.75,10.0,South,10.4,-,N/A,,Unknown,180,2012-12-01 14:35:00
7:15 AM,51.8,48.2,88,29.76,10.0,South,6.9,-,N/A,,Partly Cloudy,180,2012-12-01 15:15:00
7:35 AM,51.8,48.2,88,29.77,10.0,South,8.1,-,N/A,,Partly Cloudy,180,2012-12-01 15:35:00
7:55 AM,51.8,48.2,88,29.78,10.0,South,9.2,-,N/A,,Scattered Clouds,180,2012-12-01 15:55:00
8:15 AM,51.8,48.2,88,29.78,10.0,South,9.2,-,N/A,,Scattered Clouds,180,2012-12-01 16:15:00
8:35 AM,51.8,50.0,94,29.79,10.0,South,9.2,-,N/A,,Scattered Clouds,180,2012-12-01 16:35:00
8:55 AM,51.8,50.0,94,29.79,10.0,South,8.1,-,N/A,,Mostly Cloudy,180,2012-12-01 16:55:00
9:15 AM,53.6,50.0,88,29.79,10.0,South,11.5,-,N/A,,Mostly Cloudy,170,2012-12-01 17:15:00
9:35 AM,53.6,51.8,94,29.78,10.0,South,10.4,-,N/A,,Mostly Cloudy,170,2012-12-01 17:35:00
9:55 AM,53.6,51.8,94,29.77,10.0,SE,8.1,-,N/A,,Overcast,140,2012-12-01 17:55:00
10:15 AM,51.8,50.0,94,29.78,5.0,South,8.1,-,N/A,,Overcast,170,2012-12-01 18:15:00
10:35 AM,53.6,51.8,94,29.78,5.0,South,11.5,-,0.02,,Overcast,170,2012-12-01 18:35:00
10:55 AM,51.8,50.0,94,29.77,8.0,SSE,10.4,-,0.02,,Overcast,150,2012-12-01 18:55:00
11:15 AM,51.8,48.2,88,29.75,10.0,SSE,11.5,-,N/A,,Overcast,160,2012-12-01 19:15:00
11:35 AM,51.8,48.2,88,29.74,10.0,SSE,11.5,-,N/A,,Overcast,160,2012-12-01 19:35:00
12:15 PM,53.6,50.0,88,29.73,10.0,SSE,5.8,-,N/A,,Overcast,150,2012-12-01 20:15:00
12:35 PM,53.6,50.0,88,29.72,10.0,SSE,10.4,-,N/A,,Overcast,160,2012-12-01 20:35:00
12:55 PM,53.6,50.0,88,29.71,10.0,SSE,8.1,-,N/A,,Overcast,150,2012-12-01 20:55:00
1:15 PM,53.6,51.8,94,29.71,10.0,SSE,9.2,-,0.01,,Overcast,160,2012-12-01 21:15:00
1:35 PM,53.6,51.8,94,29.70,10.0,South,8.1,17.3,0.01,,Overcast,190,2012-12-01 21:35:00
1:55 PM,55.4,51.8,88,29.69,10.0,SSW,11.5,19.6,0.01,,Overcast,200,2012-12-01 21:55:00
2:15 PM,55.4,51.8,88,29.68,10.0,South,12.7,19.6,N/A,,Overcast,180,2012-12-01 22:15:00
2:35 PM,55.4,51.8,88,29.67,10.0,South,10.4,20.7,N/A,,Overcast,190,2012-12-01 22:35:00
2:55 PM,55.4,51.8,88,29.66,10.0,South,16.1,24.2,N/A,,Overcast,190,2012-12-01 22:55:00
3:15 PM,55.4,51.8,88,29.66,10.0,South,12.7,21.9,N/A,,Overcast,190,2012-12-01 23:15:00
3:55 PM,51.8,51.8,100,29.64,2.0,SSW,18.4,28.8,0.02,,Overcast,200,2012-12-01 23:55:00
4:15 PM,53.6,50.0,88,29.64,10.0,South,18.4,26.5,N/A,,Overcast,190,2012-12-02 00:15:00
4:35 PM,53.6,51.8,94,29.63,10.0,South,19.6,32.2,N/A,,Overcast,190,2012-12-02 00:35:00
4:55 PM,53.6,51.8,94,29.62,10.0,South,16.1,25.3,N/A,,Overcast,180,2012-12-02 00:55:00
5:15 PM,53.6,51.8,94,29.62,7.0,South,21.9,42.6,N/A,,Overcast,190,2012-12-02 01:15:00
5:35 PM,53.6,51.8,94,29.61,10.0,South,20.7,27.6,0.02,,Overcast,170,2012-12-02 01:35:00
5:55 PM,53.6,48.2,82,29.61,9.0,SSW,19.6,28.8,0.05,,Overcast,200,2012-12-02 01:55:00
6:15 PM,51.8,50.0,94,29.60,9.0,South,12.7,21.9,0.05,,Overcast,170,2012-12-02 02:15:00
6:35 PM,51.8,50.0,94,29.58,10.0,South,11.5,17.3,0.11,,Overcast,180,2012-12-02 02:35:00
6:55 PM,51.8,50.0,94,29.54,10.0,SSE,8.1,-,0.13,,Overcast,150,2012-12-02 02:55:00
7:15 PM,51.8,50.0,94,29.54,10.0,SE,6.9,-,N/A,,Overcast,140,2012-12-02 03:15:00
7:35 PM,51.8,50.0,94,29.52,6.0,SE,5.8,-,0.04,,Overcast,140,2012-12-02 03:35:00
7:55 PM,51.8,51.8,100,29.50,5.0,ESE,6.9,-,0.09,,Overcast,120,2012-12-02 03:55:00
8:15 PM,51.8,50.0,94,29.45,8.0,East,10.4,-,0.06,,Overcast,100,2012-12-02 04:15:00
8:35 PM,51.8,50.0,94,29.44,8.0,SE,10.4,-,0.15,,Overcast,130,2012-12-02 04:35:00
8:55 PM,51.8,50.0,94,29.43,7.0,SSE,10.4,-,0.26,,Overcast,150,2012-12-02 04:55:00
9:15 PM,50.0,50.0,100,29.42,6.0,South,6.9,-,0.14,,Overcast,170,2012-12-02 05:15:00
9:35 PM,50.0,50.0,100,29.39,4.0,SE,3.5,-,0.30,,Overcast,130,2012-12-02 05:35:00
9:55 PM,50.0,50.0,100,29.37,5.0,Calm,Calm,-,0.42,,Overcast,0,2012-12-02 05:55:00
10:15 PM,50.0,50.0,100,29.36,3.0,Calm,Calm,-,0.12,,Unknown,0,2012-12-02 06:15:00
10:35 PM,50.0,50.0,100,29.36,7.0,WNW,5.8,-,0.26,,Unknown,300,2012-12-02 06:35:00
10:55 PM,50.0,50.0,100,29.35,6.0,Calm,Calm,-,0.38,,Unknown,0,2012-12-02 06:55:00
11:15 PM,50.0,50.0,100,29.36,5.0,South,3.5,-,0.06,,Unknown,180,2012-12-02 07:15:00
11:35 PM,50.0,50.0,100,29.34,4.0,Calm,Calm,-,0.15,,Unknown,0,2012-12-02 07:35:00
11:55 PM,50.0,50.0,100,29.34,5.0,Calm,Calm,-,0.19,,Unknown,0,2012-12-02 07:55:00